TimeCDT,TemperatureF,Dew PointF,Humidity,Sea Level PressureIn,VisibilityMPH,Wind Direction,Wind SpeedMPH,Gust SpeedMPH,PrecipitationIn,Events,Conditions,WindDirDegrees,DateUTC
12:53 AM,78.1,66.9,68,29.84,10.0,Calm,Calm,-,N/A,,Clear,0,2013-09-14 05:53:00
1:53 AM,75.9,66.9,74,29.83,10.0,Calm,Calm,-,N/A,,Clear,0,2013-09-14 06:53:00
2:53 AM,73.9,68.0,82,29.84,10.0,Calm,Calm,-,N/A,,Clear,0,2013-09-14 07:53:00
3:25 AM,73.4,68.0,83,29.87,10.0,Calm,Calm,-,N/A,,Mostly Cloudy,0,2013-09-14 08:25:00
3:53 AM,75.0,69.1,82,29.83,10.0,Calm,Calm,-,N/A,,Mostly Cloudy,0,2013-09-14 08:53:00
4:04 AM,75.2,69.8,83,29.86,10.0,Calm,Calm,-,N/A,,Scattered Clouds,0,2013-09-14 09:04:00
4:53 AM,73.0,68.0,84,29.83,10.0,Calm,Calm,-,N/A,,Partly Cloudy,0,2013-09-14 09:53:00
5:40 AM,73.4,69.8,88,29.87,10.0,Calm,Calm,-,N/A,,Mostly Cloudy,0,2013-09-14 10:40:00
5:53 AM,73.0,69.1,87,29.83,9.0,Calm,Calm,-,N/A,,Overcast,0,2013-09-14 10:53:00
6:15 AM,73.4,69.8,88,29.88,9.0,Calm,Calm,-,N/A,,Overcast,0,2013-09-14 11:15:00
6:45 AM,75.2,69.8,83,29.88,10.0,Calm,Calm,-,N/A,,Scattered Clouds,0,2013-09-14 11:45:00
6:53 AM,75.0,69.1,82,29.85,10.0,Calm,Calm,-,N/A,,Scattered Clouds,0,2013-09-14 11:53:00
7:53 AM,73.9,69.1,85,29.87,8.0,Calm,Calm,-,N/A,,Clear,0,2013-09-14 12:53:00
8:53 AM,80.1,69.1,69,29.88,10.0,NE,3.5,-,N/A,,Clear,50,2013-09-14 13:53:00
9:53 AM,84.9,69.1,59,29.89,10.0,ENE,5.8,-,N/A,,Clear,70,2013-09-14 14:53:00
10:53 AM,88.0,69.1,53,29.90,10.0,Variable,3.5,-,N/A,,Partly Cloudy,0,2013-09-14 15:53:00
11:53 AM,91.9,66.0,42,29.88,10.0,SE,6.9,-,N/A,,Clear,130,2013-09-14 16:53:00
12:53 PM,95.0,64.9,37,29.86,10.0,ESE,6.9,18.4,N/A,,Clear,120,2013-09-14 17:53:00
1:53 PM,98.1,61.0,29,29.85,10.0,ESE,11.5,-,N/A,,Clear,120,2013-09-14 18:53:00
2:53 PM,98.1,63.0,31,29.82,10.0,East,10.4,-,N/A,,Clear,80,2013-09-14 19:53:00
3:53 PM,99.0,63.0,30,29.80,10.0,ESE,18.4,-,N/A,,Scattered Clouds,110,2013-09-14 20:53:00
4:53 PM,99.0,62.1,30,29.79,10.0,ESE,12.7,20.7,N/A,,Clear,120,2013-09-14 21:53:00
5:53 PM,96.1,64.0,35,29.79,10.0,East,8.1,-,N/A,,Clear,80,2013-09-14 22:53:00
6:53 PM,96.1,64.0,35,29.80,10.0,ESE,12.7,-,N/A,,Clear,120,2013-09-14 23:53:00
7:53 PM,91.9,66.0,42,29.82,10.0,ESE,6.9,-,N/A,,Clear,120,2013-09-15 00:53:00
8:53 PM,89.1,64.9,45,29.84,10.0,SSE,10.4,-,N/A,,Partly Cloudy,150,2013-09-15 01:53:00
9:53 PM,88.0,64.9,46,29.87,10.0,ESE,10.4,-,N/A,,Mostly Cloudy,110,2013-09-15 02:53:00
10:53 PM,86.0,66.0,51,29.88,10.0,SE,6.9,-,N/A,,Clear,130,2013-09-15 03:53:00
11:53 PM,84.0,68.0,58,29.88,10.0,ESE,5.8,-,N/A,,Clear,120,2013-09-15 04:53:00